Weather History for Shannon, Ireland

Change the Weather History Date:

Sunday, June 17, 2012

  Actual Average Record
Temperature  
Mean Temperature 52 °F -  
Max Temperature 61 °F 66 °F 78 °F (2014)
Min Temperature 43 °F 52 °F 43 °F (2012)
Degree Days  
Heating Degree Days 13    
Growing Degree Days 2 (Base 50)    
Moisture  
Dew Point 44 °F    
Average Humidity 75    
Maximum Humidity 100    
Minimum Humidity 39    
Precipitation  
Precipitation 0.00 in 0.08 in - ()
Sea Level Pressure  
Sea Level Pressure 29.98 in    
Wind  
Wind Speed 5 mph ()    
Max Wind Speed 14 mph    
Max Gust Speed -    
Visibility 6.6 miles    
Events      
Averages and records for this station are not official NWS values.
T = Trace of Precipitation, MM = Missing Value Source: Averaged Metar Reports

Daily Weather History Graph

Daily Weather History Graph

Search for Another Location

Airport:

Trip Planner

Search our weather history database for the weather conditions in past years. The results will help you decide how hot, cold, wet, or windy it might be!

Date:

Astronomy

Jun. 17, 2012 Rise Set
Actual Time 5:10 AM IST 10:02 PM IST
Civil Twilight 4:20 AM IST 10:53 PM IST
Nautical Twilight 2:55 AM IST 12:18 AM IST
Astronomical Twilight Sun does not rise Sun does not rise
Moon 3:40 AM IST (6/17) 8:12 PM IST (6/17)
Length of Visible Light 18h 33m
Length of Day
16h 51m
Waning Crescent, 4% of the Moon is Illuminated
Jun 17
Waning Crescent
Jun 19
New
Jun 27
First Quarter
Jul 3
Full
Jul 11
Last Quarter

Hourly Weather History & Observations

Time (IST) Temp. Windchill Dew Point Humidity Pressure Visibility Wind Dir Wind Speed Gust Speed Precip Events Conditions
12:00 AM 51.8 °F - 48.2 °F 88% 29.89 in 6.2 mi West 5.8 mph - N/A   Mostly Cloudy
12:30 AM 50.0 °F - 48.2 °F 94% 29.89 in 6.2 mi West 5.8 mph - N/A   Mostly Cloudy
1:00 AM 50 °F - 47 °F 87% 29.91 in 12 mi West 6.7 mph - -   Mostly Cloudy
1:00 AM 50.0 °F - 48.2 °F 94% 29.89 in 6.2 mi West 5.8 mph - N/A   Mostly Cloudy
1:30 AM 50.0 °F - 46.4 °F 87% 29.92 in 6.2 mi West 6.9 mph - N/A   Scattered Clouds
2:00 AM 48.2 °F - 46.4 °F 93% 29.92 in 6.2 mi WSW 5.8 mph - N/A   Mostly Cloudy
2:30 AM 50.0 °F - 46.4 °F 87% 29.92 in 6.2 mi West 4.6 mph - N/A   Mostly Cloudy
3:00 AM 48.2 °F - 46.4 °F 93% 29.92 in 6.2 mi West 4.6 mph - N/A   Mostly Cloudy
3:30 AM 48.2 °F - 46.4 °F 93% 29.92 in 6.2 mi NNW 5.8 mph - N/A   Scattered Clouds
4:00 AM 46.4 °F 43.5 °F 44.6 °F 93% 29.95 in 6.2 mi NW 5.8 mph - N/A   Partly Cloudy
4:30 AM 44.6 °F 42.2 °F 44.6 °F 100% 29.95 in 6.2 mi NW 4.6 mph - N/A   Partly Cloudy
5:00 AM 44.6 °F 42.2 °F 44.6 °F 100% 29.95 in 6.2 mi NNW 4.6 mph - N/A   Partly Cloudy
5:30 AM 44.6 °F 42.2 °F 42.8 °F 93% 29.95 in 6.2 mi NW 4.6 mph - N/A   Partly Cloudy
6:00 AM 44.6 °F 41.4 °F 44.6 °F 100% 29.95 in 6.2 mi NW 5.8 mph - N/A   Scattered Clouds
6:30 AM 46.4 °F - 44.6 °F 93% 29.98 in 6.2 mi Variable 2.3 mph - N/A   Mostly Cloudy
7:00 AM 46 °F - 44 °F 92% 30.00 in 19 mi SE 2.2 mph - -   Scattered Clouds
7:00 AM 46.4 °F - 44.6 °F 93% 29.98 in 6.2 mi SE 2.3 mph - N/A   Mostly Cloudy
7:30 AM 48.2 °F - 46.4 °F 93% 29.98 in 6.2 mi Calm Calm - N/A   Mostly Cloudy
8:00 AM 50.0 °F - 46.4 °F 87% 30.01 in 6.2 mi SSE 2.3 mph - N/A   Mostly Cloudy
8:30 AM 51.8 °F - 46.4 °F 82% 30.01 in 6.2 mi South 1.2 mph - N/A   Mostly Cloudy
9:00 AM 51.8 °F - 44.6 °F 76% 30.01 in 6.2 mi NW 4.6 mph - N/A   Mostly Cloudy
9:30 AM 55.4 °F - 44.6 °F 67% 30.01 in 6.2 mi North 3.5 mph - N/A   Mostly Cloudy
10:00 AM 55.4 °F - 42.8 °F 63% 30.01 in 6.2 mi South 3.5 mph - N/A   Mostly Cloudy
10:30 AM 53.6 °F - 42.8 °F 67% 30.01 in 6.2 mi West 2.3 mph - N/A   Mostly Cloudy
11:00 AM 55.4 °F - 42.8 °F 63% 30.01 in 6.2 mi SSW 3.5 mph - N/A   Mostly Cloudy
11:30 AM 57.2 °F - 44.6 °F 63% 30.01 in 6.2 mi SSE 4.6 mph - N/A   Scattered Clouds
12:00 PM 57.2 °F - 41.0 °F 55% 30.01 in 6.2 mi SSE 5.8 mph - N/A   Scattered Clouds
12:30 PM 57.2 °F - 41.0 °F 55% 30.01 in 6.2 mi South 6.9 mph - N/A   Scattered Clouds
1:00 PM 58 °F - 40 °F 39% 30.02 in 37 mi South 6.7 mph - -   Scattered Clouds
1:00 PM 59.0 °F - 39.2 °F 48% 30.01 in 6.2 mi South 5.8 mph - N/A   Partly Cloudy
1:30 PM 59.0 °F - 41.0 °F 51% 30.01 in 6.2 mi SW 5.8 mph - N/A   Partly Cloudy
2:00 PM 60.8 °F - 44.6 °F 55% 29.98 in 6.2 mi SW 8.1 mph - N/A   Scattered Clouds
2:30 PM 60.8 °F - 42.8 °F 52% 29.98 in 6.2 mi WSW 6.9 mph - N/A   Scattered Clouds
3:00 PM 60.8 °F - 42.8 °F 52% 29.98 in 6.2 mi West 5.8 mph - N/A   Partly Cloudy
3:30 PM 60.8 °F - 35.6 °F 39% 29.98 in 6.2 mi SSE 3.5 mph - N/A   Scattered Clouds
4:00 PM 59.0 °F - 37.4 °F 45% 29.98 in 6.2 mi West 8.1 mph - N/A   Mostly Cloudy
4:30 PM 59.0 °F - 39.2 °F 48% 29.98 in 6.2 mi West 5.8 mph - N/A   Mostly Cloudy
5:00 PM 57.2 °F - 46.4 °F 67% 29.98 in 6.2 mi West 8.1 mph - N/A   Mostly Cloudy
5:30 PM 53.6 °F - 48.2 °F 82% 29.98 in 6.2 mi West 13.8 mph - N/A   Mostly Cloudy
6:00 PM 53.6 °F - 48.2 °F 82% 29.98 in 6.2 mi West 12.7 mph - N/A   Mostly Cloudy
6:30 PM 53.6 °F - 46.4 °F 77% 30.01 in 6.2 mi West 9.2 mph - N/A   Mostly Cloudy
7:00 PM 54 °F - 44 °F 59% 30.00 in 31 mi West 8.9 mph - -   Mostly Cloudy
7:00 PM 55.4 °F - 44.6 °F 67% 29.98 in 6.2 mi West 8.1 mph - N/A   Mostly Cloudy
7:30 PM 53.6 °F - 44.6 °F 72% 30.01 in - West 5.8 mph - N/A   Mostly Cloudy
8:00 PM 53.6 °F - 46.4 °F 77% 30.01 in 6.2 mi WSW 4.6 mph - N/A   Mostly Cloudy
8:30 PM 53.6 °F - 46.4 °F 77% 30.01 in 6.2 mi WNW 5.8 mph - N/A   Mostly Cloudy
9:00 PM 53.6 °F - 44.6 °F 72% 29.98 in 6.2 mi NNW 5.8 mph - N/A   Mostly Cloudy
9:30 PM 53.6 °F - 44.6 °F 72% 29.98 in 6.2 mi North 2.3 mph - N/A   Mostly Cloudy
10:00 PM 51.8 °F - 44.6 °F 76% 29.98 in 6.2 mi NNW 3.5 mph - N/A   Mostly Cloudy
10:30 PM 51.8 °F - 44.6 °F 76% 30.01 in 6.2 mi West 3.5 mph - N/A   Mostly Cloudy
11:00 PM 51.8 °F - 46.4 °F 82% 30.01 in 6.2 mi WSW 3.5 mph - N/A   Mostly Cloudy
11:30 PM 51.8 °F - 44.6 °F 76% 30.01 in 6.2 mi WNW 3.5 mph - N/A   Mostly Cloudy